Regional Weather Roundup
Issued by NWS Raleigh/Durham, NC

Home | Current Version | Previous Version | Text Only | Print | Product List | Glossary On
Versions: 1 2 3 4 5 6 7 8 9 10 11 12 13 14 15 16 17 18 19 20 21 22 23 24 25 26 27 28 29 30 31 32 33 34 35 36 37 38 39 40 41 42 43 44 45 46 47 48 49 50
000
ASUS42 KRAH 310010
RWRRAH
NORTH CAROLINA WEATHER ROUNDUP
NATIONAL WEATHER SERVICE RALEIGH NC
800 PM EDT SUN AUG 30 2015

NOTE: "FAIR" INDICATES FEW OR NO CLOUDS BELOW 12,000 FEET WITH NO
SIGNIFICANT WEATHER AND/OR OBSTRUCTIONS TO VISIBILITY.

NCZ001-053-055-056-065-067-310100-
WESTERN NORTH CAROLINA

CITY           SKY/WX    TMP DP  RH WIND       PRES   REMARKS
ASHEVILLE      LGT RAIN  66  63  90 CALM      30.17F
JEFFERSON      CLOUDY    66  58  76 CALM      30.23S
MORGANTON      CLOUDY    76  63  63 CALM      30.18F
HICKORY        CLOUDY    75  58  55 CALM      30.14S
RUTHERFORDTON  CLOUDY    73  62  68 SW5       30.15S
MOUNT AIRY     CLOUDY    75  67  75 CALM      30.17S
BOONE          CLOUDY    65  59  78 SE3       30.23S
$$

NCZ021-022-025-041-071-084-088-310100-
CENTRAL NORTH CAROLINA

CITY           SKY/WX    TMP DP  RH WIND       PRES   REMARKS
CHARLOTTE      LGT RAIN  77  59  53 SE8       30.13F
GREENSBORO     CLOUDY    76  62  62 S5        30.13S
WINSTON-SALEM  CLOUDY    76  64  66 CALM      30.14F
RALEIGH-DURHAM CLOUDY    78  62  57 S3        30.12F
FORT BRAGG     CLOUDY    72  68  88 S5        30.13R
FAYETTEVILLE   CLOUDY    72  69  90 S5        30.13R
BURLINGTON     CLOUDY    76  65  68 CALM      30.12F
LAURINBURG     CLOUDY    70  68  93 E3        30.13S
$$

NCZ011-015-027-028-043-044-047-080-103-310100-
NORTHEASTERN NORTH CAROLINA

CITY           SKY/WX    TMP DP  RH WIND       PRES   REMARKS
ROCKY MT-WILSO CLOUDY    77  64  64 CALM      30.11F
GREENVILLE     CLOUDY    77  70  78 CALM      30.12F
WASHINGTON     CLOUDY    76  66  71 CALM      30.11S
ELIZABETH CITY MOCLDY    77  71  82 S3        30.13S
MANTEO         CLOUDY    75  71  87 CALM      30.13S
CAPE HATTERAS  CLOUDY    78  73  84 CALM      30.13S
$$

NCZ078-087-090-091-093-098-101-310100-
SOUTHEASTERN NORTH CAROLINA

CITY           SKY/WX    TMP DP  RH WIND       PRES   REMARKS
LUMBERTON      CLOUDY    72  69  90 E3        30.13S
GOLDSBORO      CLOUDY    77  67  71 S3        30.11S
KINSTON        CLOUDY    75  70  83 CALM      30.12F
KENANSVILLE      N/A     73  69  89 CALM      30.14R
NEW BERN       CLOUDY    77  70  79 S5        30.13S
CHERRY POINT   CLOUDY    76  69  79 S5        30.14S
BEAUFORT       CLOUDY    77  70  79 SW3       30.13S
JACKSONVILLE   CLOUDY    75  70  84 S5        30.13R
WILMINGTON     LGT RAIN  74  70  87 CALM      30.14R
$$




USA.gov is the U.S. government's official web portal to all federal, state and local government web resources and services.